Погода в Вологде

Хотите узнать прогноз погоды в Вологде? Тогда Вам сюда: Погода в Вологде

Поиск расширенной информации на нашем сайте:

Полезная информация:

Новости сайта



02.01.2020
Опубликован Долгосрочный прогноз погоды по городам России и ближнего зарубежья на январь 2020 года.
Карты: Прогноз на январь и февраль 2020 года, Сравнение прогнозируемой аномалии приземной температуры воздуха на январь 2020 года по разным моделям.




Погода в Вологде - сегодня

Время (UTC), дата Ветер
(°,м/с) 
Видим.   Явления Облачность Т
(°С)
Тd
(°С)
f(%) Тe
(°С)
Pmin
(гПа)
dP
(гПа)
Po
(мм)
O2
(г/м3)
Тmin Tmax R s Состояние
почвы
09 16.01.21 350 (С) 20000 м  {снег} [диам. сложн. отлож. 8 мм]  10/10 2000 м 
[Ac As]
-20.3 -23.7 74 -26  1011.6  -0.4  746  326           
12 16.01.21 350 (С) 20000 м  снежные кристаллы  10/0 средняя 
[Ac As]
-20.4 -23.9 73 -26  1010.1  -1.4  744  326           
15 16.01.21 320 (СЗ) 20000 м  {снег} [диам. сложн. отлож. 8 мм]  10/0 верхняя 
[Cs]
-25 -28.7 71 -30  1010  -0.5  744  332    -17.6  0.0     
18 16.01.21 320 (СЗ) 20000 м  {снег} [диам. сложн. отлож. 8 мм]  ясно 
-26.1 -29.8 71 -31  1010.4  0.3  744  333           
21 16.01.21 330 (СЗ) 20000 м  [диам. сложн. отлож. 8 мм]  ясно 
-25.8 -29.5 71 -31  1010.5  0.1  744  333           
00 17.01.21 330 (СЗ) 10 км  слаб. снег  10/0 средняя 
[As op]
-25.8 -29.5 71 -31  1011.6  1.1  745  333           
03 17.01.21 330 (СЗ) 10 км  слаб. снег [диам. сложн. отлож. 8 мм]  10/10 2000 м 
[Ns]
-25.4 -29.1 71 -30  1012.4  0.8  746  333  -26.4    0.0  38  равномерный
сухой снег
100% 
06 17.01.21 320 (СЗ) 20000 м  ледяные иглы{снег} [диам. сложн. отлож. 8 мм]  6/0 верхняя 
[Ci fib]
-25.4 -29 72 -29  1014.2  1.7  747  334           
09 17.01.21 290 (З) 10 км  слаб. снег [диам. сложн. отлож. 8 мм]  10/10 2000 м 
[Ns]
-23.1 -26.7 72 -26  1015.8  1.8  748  331           
12 17.01.21 230 (ЮЗ) 20000 м  {снег}  10/0 средняя, верхняя 
[Ac As|Ci fib]
-21.4 -24.6 75 -22  1016  0.3  749  329           
15 17.01.21 200 (Ю) 20000 м  [диам. сложн. отлож. 8 мм]  10/6 1380 м средняя 
[Sc|Ac und]
-19.1 -22.1 77 -22  1015.7  -0.1  749  326    -19  0.0     
18 17.01.21 210 (ЮЗ) 20000 м  снежные кристаллы  10/10 360 м 
[Sc]
-17.1 -19.7 80 -20  1016.2  0.6  749  324           
21 17.01.21 230 (ЮЗ) 10 км  слаб. снег  10/8 480 м средняя 
[Frnb|As op]
-15.8 -18.3 81 -16  1016  -0.1  749  322           
00 18.01.21 210 (ЮЗ) 10 км  слаб. снег  10/8 360 м средняя 
[Frnb|As op]
-14.8 -17.3 81 -15  1015.9  749  320           
03 18.01.21 тихо ()   10 км  слаб. снег [диам. сложн. отлож. 8 мм]  10/8 300 м средняя 
[Frnb|As op]
-15.1 -17.6 81 -15  1015.9  -0.1  749  321  -19.1    0.2  38  равномерный
сухой снег
100% 
06 18.01.21 200 (Ю) 4000 м  слаб. снег  10/8 300 м средняя 
[Frnb|As op]
-14.1 -16.5 82 -14  1016.4  0.6  749  320           
09 18.01.21 210 (ЮЗ) 10 км  слаб. снег  10/8 270 м средняя 
[Frnb|As op]
-13.1 -15.4 83 -13  1017.1  0.8  750  319           
12 18.01.21 тихо ()   10 км  слаб. снег  10/8 300 м средняя 
[Frnb|As op]
-12.3 -14.6 83 -12  1016.9  -0.2  750  318           
15 18.01.21 210 (ЮЗ) 10 км  слаб. снег [диам. сложн. отлож. 23 мм]  10/8 330 м средняя 
[Frnb|As op]
-11.8 -14 84 -12  1017.1  0.2  750  317    -14.3  0.3     
18 18.01.21 210 (ЮЗ) 10 км  слаб. снег  10/8 300 м средняя 
[Frnb|As op]
-11.9 -14.2 83 -12  1017.1  750  317           
21 18.01.21 190 (Ю) 10 км  слаб. снег  10/8 300 м средняя 
[Frnb|As op]
-12 -14.3 83 -12  1017.3  0.2  750  317           
00 19.01.21 200 (Ю) 4000 м  слаб. снег  10/8 270 м средняя 
[Frnb|As op]
-11.7 -13.9 84 -12  1016.4  -0.8  749  317           
03 19.01.21 200 (Ю) 4000 м  дымка{снег} [диам. сложн. отлож. 23 мм]  10/10 240 м 
[St]
-11.4 -13.6 84 -11  1015.7  -0.7  749  316  -12    0.2  38  равномерный
сухой снег
100% 
06 19.01.21 тихо ()   10 км  слаб. снег  10/8 270 м средняя 
[Frnb|As op]
-10.9 -13.1 84 -11  1015.4  -0.3  749  315           
09 19.01.21 200 (Ю) 10 км  слаб. снег [диам. сложн. отлож. 23 мм]  10/8 480 м средняя 
[Frnb|As op]
-9.8 -11.7 86 -10  1015.4  0.1  749  314           
Время (UTC), дата Ветер
(°,м/с) 
Видим.   Явления Облачность Т
(°С)
Тd
(°С)
f(%) Тe
(°С)
Pmin
(гПа)
dP
(гПа)
Po
(мм)
O2
(г/м3)
Тmin Tmax R s Состояние
почвы

Для получения пояснительной информации подведите курсор к названию столбца.

ПОГОДА в Вологде - архив

Всё, что Вы хотите узнать о погоде в Вологде - удобно и подробно!

Выберите нужную дату (начиная с 1 января 2019* года) и нажмите кнопку "Найти".
Будут отображены архивные сводки погоды по пункту Вологда, начиная с указанной даты.


Отображать данные в формате CSV (для использования в таблицах Excel)


Внимание! Наш архив погоды предназначен исключительно для личного некоммерческого использования в познавательных целях. Если Вам необходимы официальные справки о состоянии погоды (для производственных, юридических, коммерческих и т.п. целей), обращайтесь в органы Росгидромета.

*Примечание: данная дата относится к архиву по метеостанциям СССР (Россия, СНГ, Балтия).
Архив по метеостанциям Зарубежной Европы и Азии (кроме Китая) хранится 10 дней, по другим регионам земного шара (Китай, Африка, Америка, Австралия, Океания) - 1 день.

Вологда - район местоположения метеостанции


Название, широта, долгота, высота метеостанции:
Вологда (город) 59.3°ш. 39.9°д. 130 м над ур. моря [Российская Федерация]

Дополнительная информация

В oтличие oт бoльшинства пoгoдных сайтoв мы публикуем пoдрoбную метеoинфoрмацию в детальнoм прoфессиoнальнoм фoрмате.

Характеристики температуры и влажнoсти вoздуха измеряются на высoте 2 м в тени вдали oт зданий и деревьев.
Скoрoсть ветра измеряется на высoте 10 м (на урoвне рoста челoвека скoрoсть ветра ниже в 1.5-2 раза). Если метеoстанция нахoдится в гoрoде или в лесу, тo скoрoсть ветра занижена на 2-4 м/с пo сравнению с oткрытым местoм. Скoрoсть ветра над акватoриями крупных рек и oзёр, а также на вершинах хoлмoв на 2-5 м/с выше, чем в oбычных услoвиях.
Атмoсфернoе давление в разных тoчках местнoсти мoжет значительнo oтличаться oт давления на метеoстанции, в зависимoсти oт услoвий рельефа (при пoдъёме на 10 м давление пoнижается примернo на 1 мм рт.ст.).